Wind_Speed
23 23 18 18 19 19 16 12 11 9 12 15 11 12 13 12 13 13 13 13 16 15 15 15 16 15 15 14 12 11 10 10 10 11 11 12 14 15 16 18 20 21 17
23 20 20 20 19 21 19 14 13 12 11 10 12 12 10 12 11 12 12 13 12 11 13 15 15 15 15 16 18 16 14 14 16 18 19 19 19 19 21 22 22 21 18
27 25 21 21 20 18 19 20 18 17 17 15 13 12 9 7 11 10 13 13 14 12 11 11 10 13 16 18 18 18 16 16 17 20 21 23 23 23 25 25 23 20 19
19 19 18 10 11 13 13 15 16 16 17 17 15 13 13 11 11 12 14 15 14 13 10 11 12 13 15 15 17 18 16 16 17 18 20 19 20 20 21 21 20 18 19
13 17 22 20 7 4 11 14 14 14 16 17 17 16 13 12 11 13 14 16 17 16 14 14 14 13 15 17 16 15 16 18 18 20 20 21 22 20 19 20 22 22 20
14 11 15 16 20 16 9 5 6 11 13 14 16 17 20 18 16 15 15 16 17 17 17 16 16 15 15 15 16 17 17 18 19 21 23 23 23 21 23 22 23 25 27
12 10 9 11 17 18 19 15 10 9 10 11 11 10 14 16 18 19 18 18 18 18 18 17 16 16 15 15 16 17 18 18 19 21 24 24 26 23 24 26 26 27 28
10 10 11 12 15 15 15 17 14 15 16 13 15 13 14 12 16 18 19 19 20 20 20 20 20 19 20 20 21 22 22 22 22 22 24 25 26 25 27 29 30 32 34
11 10 9 9 9 8 8 9 14 14 13 19 22 17 14 18 17 16 18 20 21 22 22 22 23 23 23 23 25 27 28 27 26 27 28 29 29 29 30 32 33 34 37
6 4 3 4 6 9 9 9 8 8 9 9 11 17 22 21 20 21 20 19 20 23 25 24 23 24 24 25 27 28 31 30 30 31 32 32 32 33 32 32 32 33 33
2 2 4 5 5 5 6 7 8 9 8 7 6 7 11 19 23 23 21 21 21 20 21 24 24 27 28 26 27 28 28 30 30 30 32 34 35 35 34 33 32 31 33
7 8 8 9 10 9 9 8 8 8 8 9 8 7 8 10 13 13 13 16 16 17 17 17 19 22 22 23 23 26 26 25 26 28 30 34 35 36 35 34 33 33 33
8 8 8 8 8 9 9 10 10 9 9 11 11 12 11 12 15 17 18 18 20 21 21 19 19 19 20 22 23 24 24 25 24 25 26 28 28 30 31 32 34 35 36
8 8 8 9 8 8 8 8 8 8 9 8 9 10 11 12 14 17 18 20 22 24 25 24 25 25 25 25 25 24 24 24 25 27 27 29 28 29 30 30 29 29 31
6 7 7 6 7 8 8 7 8 9 9 9 10 10 12 13 14 16 18 19 21 22 25 25 28 31 31 30 29 28 27 27 27 28 28 27 28 27 29 28 28 28 27
5 6 6 6 6 6 6 6 7 8 10 11 12 13 12 15 17 20 21 23 24 25 26 27 27 27 29 30 32 33 33 32 29 28 29 29 29 29 30 28 27 28 30
3 4 4 3 3 3 3 2 2 4 6 8 9 11 13 15 16 17 19 21 23 24 25 26 28 29 30 31 31 32 33 33 33 33 33 32 31 31 30 30 29 29 30
2 2 2 2 3 3 4 5 5 4 4 5 7 10 12 15 17 19 21 22 21 20 22 24 26 27 29 32 32 32 34 35 33 30 30 32 33 32 32 30 30 31 31
3 3 2 2 3 4 5 7 8 9 10 11 11 12 14 15 17 19 21 23 24 26 26 26 27 27 28 30 32 32 34 35 35 35 33 31 30 30 29 30 32 33 31
5 3 1 1 3 4 6 7 8 10 12 15 18 20 23 24 25 27 29 29 28 27 27 29 30 31 33 34 33 33 35 35 38 39 38 36 34 34 37 35 36 35 36
5 4 3 3 3 4 7 10 12 14 16 18 20 22 24 26 28 29 30 31 32 33 33 34 33 32 33 35 35 35 33 34 36 38 38 36 36 37 34 36 34 35 37
7 5 3 3 2 4 6 9 12 14 16 18 20 23 25 27 29 30 31 32 33 34 35 36 37 35 35 34 33 36 38 37 36 33 32 33 33 36 37 40 39 38 29
9 7 5 3 4 5 7 9 11 14 17 19 20 22 24 27 28 29 31 32 33 34 35 37 38 40 39 37 38 37 37 38 39 39 32 33 40 39 43 41 39 44 42
11 9 7 5 5 7 9 10 13 15 18 21 23 24 24 27 29 30 32 33 35 36 38 39 40 41 42 42 42 40 40 41 39 39 40 42 37 34 38 37 37 39 40
14 10 7 6 6 7 9 11 14 16 18 21 24 27 27 27 30 31 32 34 36 38 39 39 40 42 43 43 43 43 43 43 41 38 42 47 51 49 45 39 36 41 38
16 12 8 8 8 9 10 12 14 17 19 21 24 27 29 28 29 30 31 33 35 37 38 39 40 40 41 42 43 43 43 44 42 39 39 40 47 53 54 52 41 32 42
Wind_Direction
224 229 238 245 242 241 246 254 261 242 250 241 242 242 243 244 253 262 245 243 251 254 247 251 251 260 272 284 282 283 294 298 303 303 303 304 306 309 313 320 328 332 330
228 223 235 245 243 238 243 248 251 256 256 254 250 252 252 245 253 252 235 246 249 248 242 250 250 256 266 274 277 269 275 285 292 296 299 301 302 306 312 314 315 316 311
229 226 240 237 239 242 243 245 247 255 253 250 259 257 250 246 251 254 243 248 259 252 248 248 251 257 262 272 267 260 263 277 286 291 293 295 298 304 308 308 307 308 299
233 214 219 218 228 239 238 239 243 250 252 249 250 253 256 260 264 266 259 253 257 263 261 261 266 259 267 277 270 257 264 272 282 287 290 295 300 307 311 315 312 313 310
234 236 236 232 212 224 253 256 256 262 262 258 251 256 254 260 262 268 263 263 263 258 263 263 271 268 265 269 270 264 268 273 276 282 287 295 300 304 311 317 318 321 317
188 202 228 233 223 235 250 257 259 256 263 271 265 260 258 260 260 256 258 261 267 266 266 261 265 267 267 268 266 268 269 273 277 281 289 292 295 300 308 311 313 317 318
193 215 209 220 228 244 253 245 251 261 256 255 273 272 256 255 258 258 259 262 261 262 265 267 266 260 260 269 269 270 270 272 275 281 285 289 295 297 304 307 309 309 308
182 187 207 219 227 235 234 246 271 267 257 261 260 279 272 281 264 261 264 263 265 268 270 270 269 265 264 272 277 274 270 269 268 273 277 285 289 293 295 299 300 301 300
164 174 185 201 215 220 227 236 259 275 273 264 267 275 274 269 288 282 274 265 264 268 269 269 270 272 272 273 273 274 274 273 274 274 276 278 280 282 287 290 291 295 296
149 167 191 223 226 237 245 249 251 247 261 258 264 270 270 273 281 293 286 278 270 266 263 263 263 265 268 268 271 274 275 280 282 280 278 278 278 279 280 282 286 287 291
213 249 268 279 280 264 260 261 257 254 258 265 278 267 259 253 267 286 292 286 284 275 269 261 257 256 256 259 264 270 277 280 280 280 283 284 284 283 283 283 283 284 285
271 275 275 273 274 275 275 275 269 265 265 262 249 237 242 255 263 261 269 277 281 280 276 270 267 270 272 271 273 277 279 276 283 287 286 287 289 289 289 287 284 281 281
281 279 274 271 271 273 273 275 279 275 267 264 263 262 255 255 256 255 260 264 268 272 275 279 280 279 277 281 283 286 292 295 293 292 292 293 297 297 291 287 285 284 284
270 264 260 264 266 268 269 268 271 276 281 282 283 286 285 280 276 276 274 269 270 273 274 275 278 281 281 283 284 285 287 291 294 294 295 293 294 296 296 294 292 289 287
263 259 255 247 250 259 266 269 274 278 283 291 297 301 299 300 301 298 295 295 294 293 292 289 283 283 283 281 281 284 287 288 291 297 298 296 294 293 292 295 292 289 286
263 259 255 257 256 249 248 270 276 285 292 294 295 296 298 299 299 304 305 305 306 305 304 304 302 298 296 296 294 291 288 289 292 292 294 295 296 297 296 295 292 290 289
257 254 255 245 260 281 287 265 231 304 293 292 293 293 296 297 296 293 293 295 298 300 301 301 302 303 304 302 299 297 297 295 292 290 291 292 293 292 293 293 289 286 286
188 150 137 107 87 55 31 21 13 5 356 343 330 325 325 327 325 322 316 310 306 302 303 302 300 299 298 299 298 298 297 295 294 294 293 290 290 291 291 287 288 284 284
175 151 130 100 64 43 26 14 9 6 3 357 347 339 334 332 331 330 328 326 325 321 318 313 309 304 299 295 294 293 290 290 287 288 286 285 286 291 291 290 289 285 281
200 212 230 327 356 2 5 3 1 1 1 360 357 354 348 345 344 341 338 335 331 325 320 316 312 309 306 304 300 296 293 291 288 284 281 281 284 283 280 279 282 280 281
214 221 242 279 325 352 1 2 1 360 1 2 1 359 357 354 350 346 343 339 335 331 325 321 315 308 304 302 302 297 294 293 291 290 290 286 286 277 278 276 276 278 280
211 212 236 259 283 341 357 357 360 0 356 355 356 358 357 355 351 347 343 339 335 332 329 326 322 317 313 306 300 295 292 290 286 289 281 273 268 271 276 270 275 272 282
217 224 241 260 278 304 324 337 341 348 353 352 348 349 351 351 350 347 342 337 334 331 330 328 326 323 320 314 308 302 294 287 285 278 280 289 276 282 275 276 273 272 273
218 221 234 266 298 307 313 317 329 335 337 343 348 345 342 345 345 343 341 338 334 330 328 326 324 323 321 319 315 310 301 294 285 273 267 263 262 272 270 273 275 273 276
217 218 233 261 283 307 321 322 324 330 335 339 339 343 339 337 340 341 340 337 334 330 327 324 321 319 317 316 313 311 308 302 293 283 268 261 259 260 262 263 271 269 271
219 231 245 268 280 299 307 317 323 325 328 329 333 335 337 332 336 338 338 336 333 329 326 324 323 320 317 314 314 314 310 306 297 289 274 264 260 257 256 260 259 268 267
Height
1577 1587 1590 1593 1595 1597 1598 1600 1602 1603 1605 1606 1608 1609 1610 1611 1613 1614 1615 1617 1618 1619 1620 1621 1623 1625 1626 1626 1627 1627 1627 1626 1626 1626 1625 1624 1623 1622 1621 1619 1616 1614 1611
1579 1582 1586 1590 1592 1593 1595 1597 1599 1601 1602 1604 1605 1606 1607 1609 1609 1610 1612 1615 1616 1616 1616 1617 1619 1621 1622 1623 1624 1624 1624 1624 1624 1623 1623 1622 1621 1619 1617 1616 1614 1612 1609
1569 1576 1583 1586 1589 1589 1591 1593 1595 1597 1599 1600 1602 1603 1605 1606 1607 1608 1610 1612 1613 1614 1614 1614 1616 1617 1618 1619 1620 1620 1621 1621 1621 1620 1619 1618 1616 1615 1613 1611 1609 1607 1605
1571 1575 1578 1583 1584 1585 1588 1590 1592 1594 1596 1597 1600 1601 1602 1603 1605 1606 1607 1608 1610 1611 1612 1612 1613 1613 1615 1615 1615 1616 1616 1617 1617 1616 1615 1614 1612 1611 1609 1606 1604 1603 1601
1569 1573 1575 1577 1579 1582 1584 1587 1589 1590 1592 1594 1597 1598 1599 1600 1601 1603 1604 1605 1605 1606 1607 1608 1609 1610 1611 1611 1611 1612 1612 1612 1612 1612 1611 1610 1609 1607 1606 1604 1601 1599 1597
1567 1571 1571 1570 1571 1578 1582 1585 1586 1586 1588 1590 1592 1594 1595 1596 1597 1597 1599 1600 1601 1602 1602 1603 1604 1605 1605 1607 1607 1608 1608 1608 1607 1607 1606 1605 1604 1603 1602 1600 1598 1595 1592
1566 1567 1568 1569 1571 1575 1578 1582 1583 1584 1586 1587 1589 1589 1591 1592 1592 1593 1594 1595 1596 1597 1598 1598 1599 1600 1601 1602 1603 1603 1603 1603 1602 1602 1600 1600 1599 1599 1597 1595 1593 1592 1589
1564 1567 1569 1570 1572 1573 1575 1577 1579 1579 1581 1583 1584 1585 1586 1587 1586 1588 1589 1590 1590 1592 1593 1594 1594 1595 1596 1597 1596 1596 1597 1597 1597 1596 1595 1595 1594 1594 1592 1590 1588 1586 1583
1564 1566 1568 1569 1570 1571 1573 1574 1575 1575 1577 1578 1579 1579 1582 1581 1582 1583 1584 1584 1585 1586 1587 1588 1588 1589 1590 1590 1589 1588 1588 1588 1590 1590 1588 1588 1587 1587 1587 1584 1582 1580 1576
1565 1566 1566 1568 1568 1569 1570 1572 1573 1574 1575 1575 1576 1575 1576 1578 1578 1578 1578 1579 1579 1580 1581 1581 1582 1582 1582 1582 1581 1581 1579 1581 1581 1581 1580 1579 1579 1578 1579 1577 1576 1573 1571
1564 1565 1566 1566 1567 1568 1569 1569 1571 1572 1572 1572 1573 1572 1572 1573 1574 1573 1575 1575 1574 1574 1574 1574 1573 1573 1573 1574 1574 1574 1574 1573 1572 1572 1570 1570 1569 1568 1569 1569 1568 1567 1564
1564 1564 1564 1564 1565 1565 1565 1566 1567 1568 1568 1570 1570 1570 1571 1569 1569 1570 1571 1571 1569 1570 1570 1568 1568 1568 1569 1568 1568 1568 1566 1566 1565 1564 1563 1561 1560 1559 1558 1558 1557 1557 1556
1562 1562 1562 1562 1562 1562 1562 1562 1563 1564 1565 1566 1567 1567 1567 1568 1567 1566 1566 1566 1567 1568 1566 1565 1564 1564 1563 1563 1563 1563 1562 1562 1560 1557 1556 1554 1553 1551 1549 1547 1547 1546 1545
1559 1560 1560 1559 1559 1560 1561 1561 1561 1561 1562 1562 1561 1562 1561 1562 1562 1562 1561 1562 1563 1562 1561 1559 1557 1557 1557 1556 1555 1556 1556 1555 1554 1550 1548 1547 1546 1543 1540 1539 1537 1536 1534
1556 1556 1556 1557 1557 1558 1559 1558 1558 1557 1558 1557 1558 1558 1557 1556 1555 1555 1555 1555 1555 1553 1552 1551 1550 1549 1549 1549 1549 1548 1548 1547 1545 1544 1541 1538 1538 1536 1534 1532 1529 1527 1525
1554 1554 1554 1554 1555 1556 1556 1556 1555 1555 1554 1554 1554 1554 1553 1552 1551 1551 1550 1549 1547 1545 1545 1543 1543 1542 1541 1539 1538 1537 1538 1537 1537 1535 1534 1531 1529 1528 1526 1524 1522 1521 1517
1552 1552 1552 1551 1552 1554 1554 1554 1554 1554 1553 1553 1553 1552 1550 1550 1548 1548 1547 1545 1543 1541 1539 1537 1537 1534 1531 1531 1529 1528 1527 1527 1526 1527 1526 1524 1521 1520 1518 1515 1514 1513 1510
1550 1550 1551 1551 1550 1551 1551 1551 1551 1551 1551 1551 1550 1549 1547 1545 1543 1540 1538 1538 1537 1535 1533 1532 1531 1527 1524 1524 1522 1519 1517 1517 1517 1518 1517 1515 1513 1512 1510 1508 1507 1504 1501
1549 1550 1550 1550 1550 1550 1549 1550 1549 1549 1548 1548 1547 1545 1543 1541 1539 1536 1535 1532 1528 1528 1525 1524 1522 1520 1519 1518 1513 1511 1510 1509 1508 1507 1506 1506 1505 1503 1501 1500 1498 1496 1493
1547 1548 1548 1548 1548 1548 1547 1548 1547 1547 1546 1544 1542 1540 1537 1535 1532 1529 1526 1524 1523 1521 1519 1517 1515 1513 1510 1507 1505 1503 1501 1499 1499 1498 1496 1495 1496 1495 1492 1490 1489 1487 1484
1543 1544 1545 1546 1546 1545 1545 1545 1544 1543 1541 1540 1538 1536 1533 1529 1526 1524 1521 1518 1515 1513 1510 1508 1506 1505 1502 1498 1496 1494 1492 1491 1489 1486 1485 1485 1485 1483 1480 1480 1479 1477 1475
1541 1542 1543 1544 1544 1544 1543 1543 1543 1542 1540 1538 1536 1533 1529 1525 1522 1519 1516 1514 1512 1507 1503 1499 1497 1494 1491 1489 1488 1485 1481 1479 1479 1479 1476 1474 1473 1471 1470 1469 1468 1466 1464
1538 1539 1540 1541 1542 1542 1541 1541 1540 1539 1537 1535 1532 1529 1527 1523 1519 1516 1513 1509 1505 1502 1498 1493 1488 1483 1480 1477 1474 1473 1470 1468 1466 1465 1465 1464 1462 1460 1459 1457 1456 1454 1453
1535 1536 1537 1538 1538 1538 1538 1537 1536 1535 1533 1531 1528 1525 1521 1518 1514 1510 1506 1501 1497 1493 1489 1484 1479 1474 1470 1466 1463 1459 1456 1454 1453 1450 1450 1449 1447 1445 1446 1445 1444 1443 1442
1532 1533 1534 1534 1535 1534 1533 1532 1532 1530 1528 1526 1523 1520 1516 1512 1508 1504 1499 1494 1490 1485 1481 1477 1472 1467 1461 1456 1452 1447 1443 1439 1436 1434 1433 1433 1431 1431 1430 1431 1431 1431 1430
1527 1529 1530 1530 1530 1530 1529 1528 1528 1526 1524 1522 1519 1515 1511 1507 1503 1498 1493 1489 1485 1480 1475 1469 1464 1458 1452 1445 1440 1435 1429 1424 1420 1418 1417 1415 1413 1412 1415 1415 1417 1417 1418